Regional Weather Roundup
Issued by NWS

Home | Current Version | Previous Version | Text Only | Print | Product List | Glossary Off
Versions: 1 2 3 4 5 6 7 8 9 10 11 12 13 14 15 16 17 18 19 20 21 22 23 24 25 26 27 28 29 30 31 32 33 34 35 36 37 38 39 40 41 42 43 44 45 46 47 48 49 50

000
ASUS43 KDTX 290410
RWRMI
MICHIGAN HOURLY REGIONAL WEATHER ROUNDUP
NATIONAL WEATHER SERVICE DETROIT/PONTIAC MI
1200 AM EDT WED MAR 29 2017

NOTE: "FAIR" INDICATES FEW OR NO CLOUDS BELOW 12,000 FEET WITH NO
SIGNIFICANT WEATHER AND/OR OBSTRUCTION TO VISIBILITY.

MIZ047>049-052>055-059>063-066>070-074>076-081>083-290500-
SOUTHEAST LOWER MICHIGAN

CITY           SKY/WX    TMP DP  RH WIND       PRES   REMARKS
ADRIAN         CLEAR     37  35  92 N8        30.22R WCI  31
ALMA           CLEAR     34  33  98 CALM      30.25R
ANN ARBOR      CLEAR     38  33  82 N5        30.21R WCI  34
BAD AXE        CLEAR     29  28  94 CALM      30.23R
CARO           CLEAR     30  30  97 CALM      30.23R
DETROIT CITY   CLEAR     39  32  76 N6        30.22R WCI  35
DETROIT        CLEAR     40  34  79 N6        30.23R
FLINT          CLEAR     37  30  75 NE5       30.24R WCI  33
GROSSE ILE     CLEAR     37  34  87 NE3       30.21S
HILLSDALE        N/A     32  32 100 CALM      30.20R FOG
HOWELL         CLEAR     37  33  89 CALM      30.22R

CITY           SKY/WX    TMP DP  RH WIND       PRES   REMARKS
JACKSON        CLEAR     34  32  92 CALM      30.22R
LAMBERTVILLE   CLEAR     38  36  90 CALM      30.22R FOG
LANSING        CLEAR     38  32  79 N3        30.23R
LAPEER         FAIR      32  31  96 CALM      30.23R
MASON          CLEAR     36  34  94 CALM      30.22R
MONROE         CLEAR     38  36  91 E3        30.22R
MT. CLEMENS    CLEAR     35  32  90 N6        30.21R WCI  30
PONTIAC        CLEAR     37  31  78 NE6       30.21R WCI  32
PORT HOPE        N/A     31  29  92 CALM      30.21S
PORT HURON     CLEAR     36  30  80 CALM      30.22S
TRI CITIES     CLEAR     35  33  92 NW3       30.25R
MIDLAND        FAIR      31  30  94 CALM      30.25R
TROY           CLEAR     39  31  73 N6        30.24R WCI  35
SAGINAW HB     CLEAR     34  32  93 CALM      30.24R
$$
MIZ043>046-050>051-056>058-064>065-071>073-077>080-290500-
SOUTHWEST LOWER MICHIGAN

CITY           SKY/WX    TMP DP  RH WIND       PRES   REMARKS
BATTLE CREEK   CLEAR     38  34  85 CALM      30.23R
BENTON HARBOR  PTCLDY    34  32  92 N3        30.23R
BIG RAPIDS     CLEAR     41  34  77 CALM      30.25R
COLDWATER      CLEAR     35  35 100 CALM      30.21S FOG
FREMONT        FAIR      37  35  92 CALM      30.23R
HOLLAND        MOCLDY    32  30  92 W3        30.24R
GRAND RAPIDS   CLEAR     40  36  86 CALM      30.23R
IONIA          FAIR      38  34  83 NE3       30.23R
KALAMAZOO      CLEAR     36  32  85 CALM      30.22R FOG
LUDINGTON      CLEAR     32  32 100 CALM      30.23R
MARSHALL       CLEAR     34  34  98 CALM      30.21S
MOUNT PLEASANT CLEAR     35  32  89 CALM      30.25R
MUSKEGON       FOG       33  32  96 CALM      30.24R VSB 1/4
SOUTH HAVEN    CLEAR     32  31  98 CALM      30.24R
$$
MIZ016>042-290500-
NORTHERN LOWER MICHIGAN

CITY           SKY/WX    TMP DP  RH WIND       PRES   REMARKS
ALPENA         CLEAR     33  33 100 W5        30.24R WCI  29
BEAVER ISLAND  CLEAR     28  28 100 CALM      30.27R
BELLAIRE       CLEAR     31  29  94 CALM      30.27R
CADILLAC       CLEAR     32  31  96 CALM      30.24R
CHARLEVOIX     CLEAR     31  31 100 W3        30.30R
FRANKFORT      CLEAR     32  29  89 CALM      30.26R
GAYLORD        CLEAR     33  25  72 CALM      30.24R
GRAYLING       CLEAR     27  27 100 CALM      30.26R
HARBOR SPRINGS CLEAR     29  29  99 W3        30.26R
HOUGHTON LAKE  CLEAR     33  30  88 CALM      30.25R
MANISTEE       CLEAR     33  31  92 E5        30.24R WCI  29
OSCODA         CLEAR     29  27  90 SW6       30.23R WCI  23
PELLSTON       CLEAR     29  26  89 NW5       30.26R WCI  24
ROGERS CITY    CLEAR     39  30  69 W3        30.25R
TRAVERSE CITY  CLEAR     32  29  88 CALM      30.26R
$$
MIZ007>008-015-290500-
EASTERN UPPER MICHIGAN

CITY           SKY/WX    TMP DP  RH WIND       PRES   REMARKS
KINROSS        CLEAR     31  29  92 W6        30.25R WCI  25
MACKINAC ISLAN CLEAR     34  31  90 W8        30.25R WCI  27
NEWBERRY       CLEAR     32  32  98 W5        30.26R WCI  28
S. S. MARIE    CLEAR     32  29  88 W5        30.24R WCI  27
MUNISING         N/A     30  30 100 N3        30.29R
$$
MIZ004>006-011>014-085-290500-
CENTRAL UPPER MICHIGAN

CITY           SKY/WX    TMP DP  RH WIND       PRES   REMARKS
MANISTIQUE     CLEAR     33  31  90 NW6       30.27R WCI  28
ESCANABA       CLEAR     27  26  96 CALM      30.29R
MENOMINEE        N/A    N/A N/A N/A MISG        N/A
SAWYER-GWINN   CLEAR     28  26  94 CALM      30.30R
$$
MIZ001>003-009>011-084-290500-
WESTERN UPPER MICHIGAN

CITY           SKY/WX    TMP DP  RH WIND       PRES   REMARKS
IRON MOUNTAIN  PTCLDY    32  25  75 CALM      30.26R
HOUGHTON       CLEAR     35  23  61 NE5       30.29R WCI  31
COPPER HARBOR    N/A     29  27  92 CALM      30.31R
IRONWOOD       CLEAR     38  27  64 E3        30.26R
$$

ABBREVIATIONS USED IN REMARKS
   TC - TEMPERATURE IN CELSIUS
  WCI - WIND CHILL INDEX
   HX - HEAT INDEX
  VSB - VISIBILITY





USA.gov is the U.S. government's official web portal to all federal, state and local government web resources and services.